Location: *
(44.3925°N, 5.4708°E)
Time: 22:35:50
(UTC+00:00)

Cosmos 2219 - Pass Details

Date: 18 September 2019
Orbit: 834 x 860 km, 71.1° (Epoch: 14 October)

Event Time Altitude Azimuth Distance (km) Brightness Sun altitude
Rises 19:00:12 0° 190° (S) 3,418 6.3 -14.2°
Reaches altitude 10° 19:02:41 10° 186° (S) 2,487 5.5 -14.7°
Maximum altitude 19:08:16 56° 109° (ESE) 1,013 3.3 -15.6°
Drops below altitude 10° 19:13:52 10° 33° (NNE) 2,502 5.5 -16.6°
Sets 19:16:22 0° 29° (NNE) 3,440 6.3 -17.0°
